Starlink 11322

operational
NORAD ID: 61542 Int'l Des: 2024-184 Owner: SPXS Country: US Constellation: starlink
LEOCIRCULAR

Über Starlink 11322

Beschreibung wird geladen...

Live-Position

3D-Globus wird geladen...

Nächste Überflüge

Höhenverlauf

Altitude vs Time

uPlot chart will show altitude changes over time

Zweizeiliger Elementsatz

1 61542U 24184L 26036.02607312 .00001461 00000-0 16920-4 0 9999
2 61542 53.1599 37.5399 0001265 100.0610 260.0551 15.69711172 76349
Epoch: 5. Feb. 2026 • Age: 9 hours

Aktueller Status

Höhe 377.8 km
Geschwindigkeit 7.68 km/s
Subsatellitenpunkt -50.12°S, 3.2°E
Startdatum 15. Okt. 2024
Alter 1.3 years
Typ internet

Technische Details

Klassifizierung Payload
Masse 960.00 kg
Trockenmasse 910.00 kg
Gesamtmasse 960.00 kg
Länge 0.30 m
Durchmesser 4.10 m
Spannweite 29.00 m
Form Box + pan
Hersteller SPXS
Bus-Typ Starlink V2MD
Phasenstatus In Orbit
Besitzer/Staat SPXS/US

Große Konstellationen

Loading constellations...